Dewpoint
66 65 66 65 66 66 66 66 65 62 61 61 59 58 57 57 58 60 61 61 59 58 56 55 58 56 55 55 58 54 55 55 53 53 54 52 51 51 52 52 52 51 51
64 65 65 65 65 66 66 66 65 62 61 61 59 58 56 57 58 59 61 60 59 57 57 54 57 55 56 56 56 55 56 53 52 53 54 52 53 53 53 52 51 51 50
57 65 65 65 66 66 66 66 65 63 62 61 60 57 56 56 57 58 59 59 58 57 57 58 57 57 57 56 55 55 55 55 54 51 53 53 53 53 52 52 51 51 50
55 58 65 65 65 65 65 65 64 64 62 61 59 57 56 55 56 56 57 57 57 57 57 58 58 58 58 57 55 55 55 55 52 52 52 50 53 53 52 52 51 51 51
53 55 64 65 65 65 64 64 64 63 62 61 60 57 56 55 54 55 54 54 56 57 57 57 56 57 58 57 55 55 54 55 53 53 53 51 53 53 52 52 51 51 51
51 53 57 64 64 64 64 64 63 63 62 61 60 59 56 55 54 54 53 53 54 56 56 56 56 57 57 56 56 54 55 55 55 54 52 51 51 51 52 51 51 51 51
49 52 53 57 64 63 63 63 63 62 61 62 59 58 57 55 54 53 53 53 52 54 55 55 52 52 56 56 56 54 53 56 55 55 53 53 52 52 52 52 52 51 51
47 50 50 52 55 63 63 63 62 62 62 62 59 57 56 56 56 53 53 53 53 53 53 54 53 52 52 54 54 54 55 56 56 55 54 54 53 52 52 52 52 52 51
45 47 49 50 54 60 63 62 62 61 60 61 60 57 54 54 55 56 53 53 53 53 53 53 53 52 52 53 52 52 53 56 57 56 53 52 53 52 52 52 52 52 51
43 45 46 49 51 54 62 63 63 62 61 59 60 59 58 56 54 53 56 53 53 53 53 53 53 52 52 52 53 52 52 52 53 56 55 54 53 52 52 52 51 52 52
40 42 43 46 49 51 53 62 63 62 61 60 59 59 58 57 58 54 53 55 55 53 53 53 53 52 52 52 53 53 52 52 52 55 55 54 54 54 52 53 53 52 52
38 40 42 44 47 49 50 53 61 62 61 60 60 59 58 56 56 55 54 54 54 55 53 53 53 53 52 53 53 53 53 52 52 53 55 56 56 55 54 53 53 52 52
36 37 40 41 44 48 49 52 54 62 61 60 60 59 59 58 57 57 56 55 54 56 56 54 53 53 53 53 53 53 53 52 51 52 54 55 56 56 55 55 55 53 53
35 37 39 41 43 46 48 50 52 57 62 61 61 61 60 58 59 58 56 55 54 55 56 55 56 54 53 53 53 53 53 52 51 51 52 54 55 55 55 55 55 55 55
35 37 39 41 43 46 47 49 51 53 61 62 61 61 60 60 60 60 59 58 55 53 54 55 56 57 55 53 52 52 52 52 51 50 50 52 53 54 55 55 55 55 55
38 39 40 42 43 46 45 46 47 49 53 61 61 60 60 60 60 60 60 59 59 57 54 56 57 57 57 56 54 52 52 52 51 50 49 50 52 53 53 54 54 54 54
38 39 40 43 41 40 40 41 43 46 47 54 61 61 60 61 60 60 60 60 59 59 56 57 58 59 58 56 56 55 54 52 52 50 49 49 50 51 52 53 53 53 53
39 40 41 41 39 38 38 39 39 40 43 46 51 60 60 60 60 60 60 59 59 59 58 56 58 59 59 58 58 56 56 54 53 51 49 48 48 49 50 51 52 52 52
39 40 40 39 37 36 36 37 38 39 40 43 47 51 59 60 59 60 59 59 59 59 59 58 57 59 59 60 59 59 57 55 53 53 49 48 48 48 49 50 50 51 51
39 39 40 36 36 34 35 36 37 39 40 42 45 48 53 59 59 59 59 59 58 58 58 58 57 58 58 59 59 59 59 59 57 54 50 49 48 47 47 48 48 49 50
39 40 39 34 34 32 33 35 37 39 42 44 47 49 52 47 54 60 59 59 58 57 57 56 56 57 57 57 57 57 57 59 59 58 54 51 48 47 47 46 47 47 47
38 38 37 34 32 31 33 34 35 38 40 41 44 46 49 43 42 45 48 57 58 57 56 56 56 55 56 57 57 57 56 55 54 59 57 55 51 50 49 48 48 47 46
38 37 36 33 30 31 33 34 34 36 39 42 39 39 40 41 40 40 43 46 52 53 56 57 56 55 55 56 57 56 56 56 55 56 58 57 53 53 53 51 50 48 46
35 36 35 30 29 29 31 32 33 35 38 37 38 37 37 38 37 38 41 45 50 54 54 54 55 56 56 57 57 57 57 56 57 56 58 55 56 55 55 54 51 49 47
31 31 31 29 27 27 30 31 32 33 35 35 36 36 35 36 36 36 41 43 45 50 53 54 54 55 55 55 55 57 56 55 54 55 56 55 54 55 56 56 56 51 48
29 29 28 28 26 26 28 30 32 32 33 32 33 33 33 34 35 35 37 37 39 41 42 45 49 53 52 53 53 54 56 55 54 53 55 55 55 54 52 54 56 56 51
Wind_Speed
12 13 13 13 12 12 12 10 11 12 13 10 9 13 15 15 14 12 12 18 18 17 19 17 18 15 16 14 12 15 15 15 15 14 14 14 13 13 13 13 12 11 11
7 14 14 17 15 13 12 13 13 12 14 9 9 13 15 15 14 15 13 16 18 16 15 17 16 17 17 15 14 14 14 14 16 14 14 14 13 13 13 12 12 11 10
17 8 13 13 16 14 13 12 11 9 11 8 10 15 16 16 16 15 15 15 16 17 17 18 17 16 17 17 14 15 14 14 14 14 14 13 13 13 12 12 12 11 10
18 16 12 11 11 15 11 11 16 13 9 11 11 14 15 15 16 16 14 16 15 14 15 18 18 17 17 17 16 14 15 15 14 15 14 14 14 14 13 12 12 11 10
20 17 6 9 7 11 12 9 11 14 6 9 15 15 15 15 16 16 15 17 16 15 13 17 17 18 18 17 16 17 16 15 15 15 15 15 15 14 14 13 12 11 10
21 18 15 8 10 10 11 12 10 12 12 10 12 13 14 15 14 15 17 15 16 16 14 16 15 14 17 18 17 16 17 17 16 16 16 16 16 15 15 14 13 12 11
21 19 16 14 11 12 10 14 13 13 11 9 11 16 10 11 13 13 13 14 15 16 16 17 16 13 14 18 18 18 18 19 19 18 18 17 17 15 16 15 15 14 13
21 18 18 16 15 10 13 13 13 8 9 13 10 10 9 5 6 12 13 15 16 13 15 16 17 18 16 14 14 19 20 20 21 20 20 19 17 17 17 17 16 16 15
20 19 19 16 15 10 12 14 14 12 10 15 13 6 6 6 8 6 13 14 15 14 15 16 17 17 18 17 18 19 21 20 21 22 20 19 19 19 19 18 18 17 17
20 21 20 18 16 14 5 12 14 14 14 14 17 6 4 6 6 5 7 15 14 17 17 17 18 17 17 16 19 20 22 23 21 22 21 22 22 21 20 20 20 19 18
19 19 21 20 17 14 15 5 12 16 15 15 17 14 6 5 4 4 8 10 10 16 16 18 19 19 19 19 18 20 28 28 27 21 23 23 22 22 21 22 21 20 20
17 17 20 18 18 15 15 14 7 15 15 14 12 14 16 14 13 10 6 13 17 12 16 16 17 19 19 20 22 25 30 32 30 27 23 23 23 23 23 23 23 22 22
17 18 20 21 17 16 14 13 14 13 16 15 17 16 14 17 11 15 14 8 13 9 9 15 18 18 18 19 22 27 30 34 34 31 29 26 25 25 25 25 24 24 23
17 18 18 19 17 15 13 12 12 11 15 16 18 18 16 15 14 17 18 11 8 12 13 17 14 19 19 19 22 30 24 34 35 34 32 30 29 27 26 25 24 24 23
16 16 16 16 17 15 13 13 11 11 9 14 15 18 18 17 14 12 12 14 16 11 18 14 17 17 17 18 22 23 25 26 34 34 34 33 31 30 30 29 27 26 24
16 17 17 17 16 13 15 14 13 13 14 11 12 17 18 12 15 14 17 16 16 18 13 17 18 13 17 17 20 24 24 26 34 35 35 35 33 32 32 31 31 28 26
16 16 17 16 14 15 15 14 15 13 13 12 13 16 17 14 16 16 15 17 18 18 21 19 12 12 14 17 17 20 19 21 20 33 35 35 34 34 33 33 32 31 30
15 15 15 12 15 16 16 15 14 14 14 13 13 15 16 15 18 17 16 17 15 14 16 20 12 13 18 16 17 15 16 16 18 23 33 34 35 35 36 35 34 32 33
15 14 13 14 14 17 17 16 13 13 12 12 13 13 14 16 18 15 16 17 16 16 18 20 12 11 9 7 8 8 13 13 14 17 26 31 33 34 35 35 33 34 35
14 13 10 15 14 17 18 19 17 14 12 11 11 12 12 13 18 17 16 17 17 16 12 13 14 10 9 7 5 9 11 10 12 9 15 19 24 27 30 31 32 35 33
14 12 13 16 16 18 21 21 15 12 12 12 11 10 9 17 11 18 15 15 13 13 12 13 13 12 12 10 16 13 12 10 12 12 13 13 15 18 21 28 29 30 31
14 15 12 15 18 18 25 27 21 13 13 13 13 15 9 19 20 19 13 14 20 19 15 14 13 12 13 12 12 14 12 10 12 13 16 17 13 17 18 19 27 34 33
12 15 14 15 16 19 26 28 25 15 14 15 17 15 15 16 19 18 15 13 14 19 21 18 16 16 14 14 13 14 18 17 17 8 18 19 13 22 17 19 27 32 35
13 10 14 16 15 18 28 30 24 17 15 17 17 20 18 16 22 20 13 11 11 11 19 16 14 12 11 12 15 18 19 19 14 11 14 19 14 21 18 16 22 30 33
12 14 15 15 17 18 28 29 21 16 16 18 17 19 22 18 24 27 15 13 13 9 10 11 15 17 19 21 11 9 18 18 16 16 14 19 18 16 15 18 17 28 32
11 11 12 14 17 17 22 27 23 16 16 16 16 17 24 24 26 29 18 16 14 13 15 15 9 7 12 16 18 15 18 18 17 12 13 15 19 12 11 16 20 17 22
Wind_Direction
185 190 177 187 185 180 189 184 176 186 199 208 142 147 141 136 137 141 149 154 150 159 157 158 157 152 150 157 154 146 153 153 152 150 151 145 148 144 137 133 130 131 129
298 189 183 190 193 196 191 190 186 186 200 202 157 158 143 142 147 146 151 156 156 159 161 156 161 164 162 161 153 155 163 167 160 162 158 152 152 148 145 144 144 144 139
337 213 188 197 188 184 184 181 178 183 197 195 174 151 145 147 153 155 159 155 164 164 173 166 167 168 164 163 165 172 172 172 167 173 168 162 163 157 159 159 156 154 149
343 342 185 204 207 182 175 185 176 176 198 193 162 151 149 152 159 159 165 158 163 169 175 167 164 168 169 166 173 184 182 177 184 180 180 180 175 171 172 173 169 166 159
347 347 229 184 197 185 188 170 171 177 182 190 157 153 151 155 163 161 172 164 169 172 171 171 175 173 177 173 183 190 188 188 196 189 191 194 185 183 184 184 181 177 174
349 351 353 212 189 170 182 171 156 167 183 181 160 148 155 158 167 169 173 168 174 175 173 168 175 183 189 179 189 199 195 194 199 200 201 203 197 193 194 195 193 190 188
351 357 351 349 195 192 186 177 184 174 189 170 143 114 112 154 163 172 171 173 184 183 182 179 183 191 187 190 198 206 206 201 204 205 209 208 207 206 205 202 201 201 200
352 355 355 346 338 197 179 187 170 166 182 182 197 142 148 132 175 179 178 182 191 190 190 191 184 187 190 197 205 212 217 214 207 210 211 210 212 213 213 211 210 209 209
353 354 352 345 338 321 189 179 188 172 170 194 174 142 143 185 156 174 192 189 189 194 199 193 192 193 193 195 200 211 221 222 213 216 215 218 212 218 220 220 218 217 216
354 353 349 348 348 345 263 185 179 183 167 167 154 124 101 127 182 153 178 199 192 197 203 197 199 199 196 197 199 203 215 224 224 219 214 218 217 222 223 224 225 223 223
351 347 349 349 349 349 339 254 181 178 189 177 178 168 172 169 158 155 187 181 194 205 206 202 196 200 199 200 203 208 211 218 228 229 218 220 221 222 227 227 226 228 229
347 342 344 345 343 344 345 329 256 182 185 184 184 181 192 190 201 185 191 200 199 193 199 202 201 204 203 203 205 208 213 216 221 223 223 220 218 217 224 227 230 231 230
344 339 342 342 333 334 331 326 327 196 192 197 194 198 203 209 199 204 193 189 210 216 203 206 205 205 207 205 207 206 212 215 219 220 220 219 219 217 217 222 228 233 233
339 335 333 328 325 323 331 332 324 315 199 203 206 204 203 205 199 193 200 187 204 213 217 228 198 207 210 206 210 207 211 214 217 219 219 218 217 217 217 219 222 229 234
337 334 328 324 325 326 336 336 316 305 246 205 206 209 205 194 195 190 196 189 197 224 228 237 230 213 207 208 211 205 210 212 216 218 218 219 217 217 219 219 220 224 225
334 334 333 330 330 353 5 347 345 332 341 205 208 207 210 202 202 203 210 213 212 223 238 213 217 217 206 212 212 202 208 206 214 217 218 218 218 218 219 220 221 223 225
340 338 337 339 16 7 360 351 358 343 335 326 209 213 211 208 205 208 210 216 221 221 236 249 232 215 213 221 221 208 208 203 212 217 218 218 218 219 220 221 222 223 225
342 340 342 15 13 6 1 355 347 344 341 329 330 221 217 211 217 210 206 209 212 219 231 246 227 222 220 217 219 203 206 206 208 216 218 220 219 219 221 224 224 224 227
344 346 357 22 20 6 358 350 344 330 327 321 316 328 241 218 213 211 212 220 219 224 233 237 223 210 215 189 194 202 204 205 207 220 223 222 220 220 220 223 224 226 230
349 355 14 27 22 11 1 352 342 338 330 317 316 323 315 254 222 217 218 222 224 219 211 227 234 218 205 225 195 203 212 212 213 204 220 216 220 224 226 225 225 229 231
0 354 33 39 25 17 3 355 346 341 334 342 333 333 325 13 307 220 217 215 206 204 209 224 230 216 213 201 203 212 211 202 211 195 218 222 211 212 225 230 233 232 230
17 28 61 44 27 14 0 2 0 0 3 4 360 1 9 23 5 357 350 229 202 208 217 221 235 232 229 235 238 218 207 195 224 212 215 239 191 220 221 218 224 225 226
28 32 34 38 27 12 7 10 3 10 6 29 37 15 17 12 8 347 335 326 268 242 230 223 228 225 232 222 215 217 210 216 222 206 198 226 192 228 224 228 225 223 224
27 48 50 30 22 10 7 12 5 16 22 36 38 23 23 9 10 347 322 326 310 259 242 233 229 238 238 233 218 222 220 226 240 239 197 237 207 226 231 225 225 224 226
42 48 54 37 23 8 6 7 10 18 28 32 27 28 25 16 4 7 8 347 322 335 346 279 257 258 264 258 243 236 233 227 242 242 214 230 237 231 224 232 228 222 223
34 44 51 44 26 10 5 2 12 18 25 28 27 26 20 17 15 20 22 8 355 344 337 321 329 326 273 264 265 253 250 240 233 240 221 218 229 218 250 241 244 229 226